Temperature
26 23 22 22 23 24 24 23 23 23 23 21 19 18 18 18 18 18 18 18 18 18 18 18 18 18 18 18 19 19 19 19 19 18 18 18 17 17 17 16 16 16 16 16
23 23 24 25 25 25 24 23 23 23 23 21 19 18 18 18 18 18 18 18 18 18 18 18 18 18 18 19 19 19 19 18 18 18 18 17 17 17 16 16 16 16 15 15
24 25 26 26 25 25 24 23 23 22 22 21 20 18 17 17 18 18 19 19 19 18 18 18 18 19 19 19 19 18 18 18 18 18 17 17 16 16 16 16 15 15 15 15
25 26 26 26 25 24 23 24 24 23 20 18 19 17 17 17 17 18 18 19 19 19 19 19 19 19 19 19 18 18 18 18 17 17 17 16 16 16 15 15 15 14 14 14
24 25 25 25 26 25 24 24 23 21 19 18 18 17 17 16 17 18 18 19 19 19 19 19 19 19 19 19 18 18 18 17 17 16 16 16 15 15 15 14 14 14 14 14
24 25 25 26 26 26 24 22 20 18 17 17 17 17 17 16 17 18 18 19 20 20 19 19 19 19 19 19 18 18 17 17 16 16 15 15 15 14 14 14 14 13 13 13
24 25 25 26 25 24 23 20 19 19 17 17 17 17 17 17 18 18 18 19 20 20 20 19 19 19 19 18 18 17 17 16 16 15 15 14 14 14 13 13 13 13 13 13
23 23 25 26 25 24 23 21 19 20 18 17 17 17 17 18 18 19 19 19 20 20 20 20 19 19 19 18 18 17 17 16 15 15 14 14 14 13 13 13 12 12 12 12
22 23 25 26 26 25 24 21 20 18 17 17 17 17 18 18 18 19 19 20 20 20 20 20 19 19 18 18 17 17 16 16 15 14 14 13 13 12 12 12 12 12 12 11
23 23 24 25 25 24 23 21 18 18 18 18 18 17 17 19 18 18 19 19 20 20 19 19 19 18 18 17 17 16 15 15 14 14 13 13 12 12 11 11 11 11 11 11
22 22 22 23 23 23 23 22 19 17 18 17 18 18 19 18 18 18 19 20 20 20 20 19 19 18 17 17 16 15 15 14 13 13 12 12 11 11 11 10 10 10 10 10
22 19 20 22 23 24 23 22 20 19 19 17 17 17 20 19 19 19 20 20 20 20 19 18 18 17 17 16 15 15 14 13 12 12 12 11 11 10 10 10 10 10 9 9
23 19 20 20 21 22 23 23 21 18 17 17 17 19 20 19 19 21 20 20 20 19 18 18 17 16 16 15 14 14 13 12 12 11 11 10 10 10 9 9 9 9 9 9
22 20 20 21 21 22 23 24 23 20 18 19 18 19 19 19 19 19 20 20 19 18 17 17 16 16 15 14 13 13 12 12 11 11 10 10 10 9 9 9 9 9 8 8
22 22 23 22 23 24 24 24 23 22 20 19 19 18 18 18 18 20 19 19 18 17 17 16 16 15 14 13 13 12 12 11 11 10 10 9 9 9 9 8 8 8 8 8
21 22 23 22 24 24 24 24 24 23 22 20 19 19 19 19 19 19 18 18 17 17 16 15 15 14 13 13 12 12 11 11 10 10 9 9 9 8 8 8 8 8 8 8
20 21 21 20 22 23 22 23 23 23 22 20 19 19 18 17 17 17 18 18 17 16 16 15 14 14 13 12 12 11 11 10 10 9 9 8 8 8 8 8 8 7 7 7
20 19 18 19 21 22 21 22 23 21 21 20 19 18 18 18 18 18 18 17 16 16 15 15 14 13 12 12 11 11 10 10 9 9 8 8 8 8 8 8 8 7 7 7
20 20 19 19 20 21 22 23 21 20 20 20 19 18 18 18 17 16 17 17 16 16 15 14 13 13 12 11 11 10 10 9 9 8 8 8 8 8 8 8 7 7 7 7
20 19 19 19 20 20 21 23 23 20 19 20 19 18 18 17 14 15 17 16 16 15 15 14 13 12 12 11 10 10 9 9 9 8 8 8 8 7 7 7 7 7 7 7
21 20 19 19 19 20 21 23 23 21 19 21 21 21 20 18 17 18 17 17 16 15 14 14 13 12 11 11 10 10 9 9 8 8 8 8 8 7 7 7 7 7 7 7
20 19 19 18 19 20 22 23 21 20 22 22 21 21 20 20 19 18 17 17 16 15 14 13 13 12 11 10 10 9 9 8 8 8 8 8 8 7 7 7 7 7 7 7
20 19 18 18 19 21 24 24 24 24 22 22 22 21 21 20 19 18 17 16 16 15 14 13 12 12 11 10 9 9 9 8 8 8 8 8 8 8 7 7 7 7 7 7
21 21 20 20 20 22 24 25 24 24 23 22 22 21 21 20 19 18 17 16 16 15 14 13 12 12 11 10 9 9 8 8 8 8 8 8 8 8 7 7 7 7 7 7
22 21 20 19 20 22 23 24 24 23 23 22 22 21 21 20 19 18 17 16 16 15 14 13 12 11 10 10 9 9 8 8 8 8 8 8 8 7 7 7 7 7 7 7
20 21 20 20 21 20 23 24 23 23 22 22 21 21 20 20 19 18 17 16 15 14 14 13 12 11 10 10 9 9 8 8 8 8 8 8 8 7 7 7 8 8 7 7
Wind_Speed
2 2 5 9 8 7 3 2 3 3 5 10 13 11 8 7 6 6 6 6 6 6 6 6 7 6 6 6 7 6 6 5 4 4 3 3 2 2 2 2 1 1 1 1
4 5 11 9 5 2 1 1 1 2 6 7 9 8 3 2 1 3 4 3 4 4 4 5 6 5 5 5 5 5 5 4 4 2 1 1 0 1 1 2 3 3 3 2
6 7 5 2 3 2 1 2 1 2 5 7 7 3 2 2 1 2 5 5 4 6 6 6 6 6 5 5 6 6 5 4 3 3 2 3 3 3 3 3 3 4 5 4
3 4 3 3 3 1 3 3 5 4 4 1 2 2 4 3 3 2 4 5 6 6 6 6 7 6 6 6 6 6 6 4 3 3 3 3 2 1 2 2 3 5 5 5
4 3 2 3 3 2 3 2 5 5 5 3 4 2 4 1 3 3 4 6 7 8 8 8 8 8 7 7 6 6 5 4 4 4 4 3 2 3 3 3 4 5 5 5
4 3 2 3 3 3 5 7 7 6 5 4 3 0 4 3 4 3 4 5 6 7 7 7 7 6 5 5 5 4 4 4 4 3 4 4 4 4 4 4 4 4 4 4
6 6 3 1 3 3 4 5 4 5 5 1 3 1 5 6 6 6 6 4 4 5 6 6 6 6 5 4 3 3 3 3 3 3 3 4 4 5 5 5 5 5 4 4
2 6 5 2 2 2 1 6 5 3 2 1 2 2 6 7 6 4 5 4 4 5 5 5 5 4 2 2 2 2 1 1 2 2 3 3 4 3 4 5 5 5 5 5
3 4 5 3 1 3 2 2 5 7 4 2 1 3 6 5 4 3 4 4 6 6 5 4 4 4 4 4 3 2 2 0 2 3 3 3 4 4 5 5 5 5 5 5
5 1 5 4 5 5 5 4 5 5 4 2 1 3 5 6 6 5 5 6 5 4 4 5 5 4 4 3 3 2 2 1 2 3 3 3 3 4 5 5 6 6 6 5
4 3 5 5 2 1 3 4 5 4 5 6 3 5 6 9 8 8 7 7 6 6 6 5 4 3 3 2 2 1 1 2 3 3 3 4 5 5 5 4 6 6 6 6
3 5 2 5 5 3 3 3 6 4 0 4 5 5 4 9 8 8 7 6 6 7 6 5 4 3 2 1 1 2 2 3 4 4 4 5 5 5 5 6 7 7 7 7
4 6 4 8 9 4 0 3 5 7 5 4 5 3 1 6 6 7 7 7 6 6 5 3 2 1 1 1 2 3 3 4 4 4 4 6 6 6 7 8 8 7 8 8
5 4 6 5 8 6 2 2 3 6 4 4 6 7 5 6 7 6 7 7 6 6 5 3 1 1 3 3 3 3 4 4 4 4 5 7 8 8 8 8 8 8 8 8
5 2 3 5 6 3 3 2 3 5 8 7 8 9 9 9 8 7 6 7 7 5 4 3 2 3 3 3 3 3 4 5 5 6 7 8 8 7 7 8 8 8 8 9
3 3 2 6 7 6 4 1 4 5 6 8 9 6 7 6 5 5 7 8 6 5 3 2 3 3 3 3 3 3 4 6 5 6 7 7 7 7 8 8 8 8 8 9
3 4 2 4 8 5 3 2 4 4 5 9 7 7 7 6 8 8 7 7 6 5 3 3 3 3 3 4 4 4 5 6 6 7 7 7 7 8 8 9 9 9 9 8
7 5 4 1 5 3 6 1 9 8 4 6 8 8 8 8 7 7 7 7 6 5 3 3 3 3 3 3 3 4 5 6 6 7 7 8 8 9 9 9 9 9 8 8
7 7 4 3 1 5 4 1 6 7 3 3 8 8 7 7 5 0 4 7 7 5 4 4 3 3 3 4 4 4 6 6 6 7 8 8 8 9 10 10 10 9 9 9
5 7 6 4 3 5 7 4 6 9 1 3 8 9 8 7 2 4 6 6 6 4 3 3 2 1 2 4 4 4 6 7 7 8 9 9 9 9 10 11 11 9 8 9
3 2 4 5 4 6 7 5 5 3 8 8 9 10 9 7 7 6 8 6 5 4 3 2 1 2 4 4 3 5 7 7 8 8 9 9 9 9 10 9 8 9 9 9
7 4 5 4 3 7 7 5 7 9 7 9 9 9 9 8 8 8 8 7 5 3 2 1 1 3 4 4 3 6 7 8 8 8 9 10 10 10 10 9 10 9 8 8
3 7 6 7 8 8 7 9 8 9 9 9 9 9 10 10 9 9 7 6 4 3 2 2 2 4 5 4 4 6 7 7 7 8 9 10 11 10 9 9 9 9 7 6
5 2 3 2 6 6 5 6 7 8 9 9 9 10 11 10 9 9 7 5 4 3 3 2 1 3 5 5 5 5 7 6 7 9 10 9 10 11 10 8 7 7 7 6
6 2 2 3 5 1 2 6 8 7 7 8 8 9 11 11 9 9 7 7 5 4 3 2 2 3 5 5 6 6 6 6 7 9 9 9 9 9 10 9 7 7 6 6
3 3 3 6 8 6 7 8 9 9 9 10 10 9 9 10 10 9 8 6 5 4 3 2 3 3 5 5 5 6 5 6 7 8 9 8 8 9 8 9 9 9 8 9
Wind_Direction
295 116 244 245 221 216 256 312 330 348 68 79 83 77 55 49 58 79 75 83 93 107 117 117 116 110 101 89 83 80 78 65 61 55 50 42 17 358 358 332 327 339 321 316
349 278 254 248 253 297 9 345 335 39 70 89 89 77 57 65 73 115 123 124 122 121 118 118 119 113 104 102 98 95 93 89 86 95 103 119 122 328 327 341 340 327 309 295
218 252 293 284 269 342 299 191 181 143 72 79 99 52 304 251 214 142 144 162 171 163 152 148 138 137 135 141 149 144 146 135 127 115 87 53 38 20 5 349 330 316 307 287
261 272 331 322 288 194 269 214 154 137 113 55 114 174 262 255 279 215 191 183 181 178 170 169 165 168 171 176 171 165 165 160 154 134 119 123 133 231 255 267 286 305 309 298
285 283 318 289 267 140 190 120 110 115 112 75 21 109 278 270 267 248 213 197 188 185 182 183 182 184 189 184 178 179 175 182 185 171 164 162 192 225 252 278 299 304 305 303
274 275 219 233 274 132 114 77 58 52 72 57 319 178 285 252 241 247 234 208 192 189 192 192 192 188 194 191 186 186 186 214 221 208 199 196 215 237 262 281 288 291 293 296
330 328 308 262 8 23 85 93 37 13 29 296 304 356 269 266 266 239 235 228 211 196 199 202 199 198 202 198 194 181 184 240 257 246 245 240 236 239 248 259 262 270 280 280
345 320 318 331 192 189 124 131 150 186 191 270 329 279 270 278 275 230 219 216 220 216 204 195 190 185 174 154 147 146 159 262 292 282 277 272 262 255 256 256 252 256 256 259
188 272 307 324 350 118 62 25 150 126 99 91 290 295 299 293 292 246 224 211 206 205 196 175 148 135 127 111 109 125 135 250 298 291 287 287 285 277 271 272 269 268 267 273
160 240 313 335 32 34 128 139 81 93 129 123 245 239 228 233 229 234 217 199 199 173 150 141 130 122 120 124 125 112 125 214 278 294 291 299 290 286 281 285 285 282 280 280
101 119 323 0 28 320 26 48 97 111 141 141 179 259 226 198 195 188 194 189 177 156 146 133 127 126 122 110 99 62 338 310 304 302 299 307 299 293 293 286 280 277 275 276
98 111 316 291 272 204 159 172 138 124 77 130 137 263 264 169 168 159 166 167 153 141 141 137 133 119 98 69 343 320 308 303 293 292 298 299 296 294 292 285 280 276 274 272
108 97 39 348 341 351 134 195 154 132 114 124 136 232 228 134 141 154 151 150 147 142 133 124 111 100 272 278 290 298 301 298 299 302 304 304 300 293 286 282 280 278 274 273
115 111 152 198 244 262 257 228 151 119 126 152 173 177 181 156 158 168 164 158 145 136 139 146 180 269 272 276 284 294 299 296 301 304 301 297 291 286 283 283 283 280 277 275
105 132 231 249 271 280 257 218 152 143 162 160 178 171 193 188 182 181 162 136 127 138 147 158 205 255 274 282 289 292 292 296 298 300 298 292 290 290 290 289 287 285 282 284
107 146 4 324 314 324 306 273 143 127 129 133 138 174 202 180 147 140 142 139 144 157 169 196 246 275 280 276 278 286 288 291 293 297 296 295 298 297 294 290 288 287 284 281
137 131 103 291 312 358 322 228 135 117 136 147 164 187 170 159 165 169 167 157 158 169 192 238 265 265 263 258 259 270 281 292 301 299 298 300 300 296 293 296 297 288 284 278
155 134 137 243 10 327 266 267 118 103 74 121 134 155 166 170 173 180 173 161 166 182 210 248 255 258 257 259 266 277 291 302 303 302 301 301 301 298 297 295 291 287 280 277
155 142 134 131 219 280 288 241 138 120 70 135 137 149 147 133 105 229 195 173 181 191 200 213 222 226 259 276 279 295 304 306 305 302 299 299 299 299 302 300 295 290 286 283
110 114 129 155 180 239 242 232 136 101 106 207 148 150 152 134 126 242 208 183 179 178 188 203 227 249 293 282 285 304 303 304 301 296 296 298 297 298 300 297 293 290 286 283
115 98 159 189 212 252 233 201 123 138 221 200 164 162 161 171 195 200 182 181 175 173 186 183 191 280 278 280 294 303 302 297 290 294 299 301 301 299 296 294 292 292 292 292
175 176 202 165 182 248 230 160 173 204 184 171 168 169 164 172 170 164 169 171 169 173 203 194 244 285 285 290 300 301 297 290 295 300 303 304 304 305 309 302 300 297 295 297
170 186 185 184 210 227 208 191 194 161 165 176 172 173 158 157 166 169 171 174 183 190 217 218 246 291 297 296 293 292 291 298 305 308 307 307 308 306 302 300 301 304 300 295
297 190 139 234 260 236 207 176 167 166 170 174 168 166 159 162 168 166 170 182 194 211 219 219 263 300 296 295 298 286 292 302 307 309 309 309 309 308 307 303 298 297 297 295
263 358 26 301 284 342 191 190 178 169 155 155 161 165 164 159 164 168 175 187 196 206 212 209 238 273 282 292 299 299 302 310 311 310 310 310 306 304 307 305 296 291 279 266
245 187 185 239 237 195 217 210 175 163 167 166 161 166 168 163 166 166 175 185 188 196 197 217 254 272 279 289 298 300 302 307 310 314 314 310 308 308 308 309 310 300 287 284
Height
1504 1510 1514 1509 1506 1507 1507 1511 1513 1508 1502 1508 1516 1521 1521 1519 1519 1518 1519 1520 1521 1522 1523 1523 1523 1523 1523 1523 1523 1523 1523 1523 1523 1523 1522 1522 1521 1521 1520 1519 1518 1517 1515 1514
1509 1511 1501 1498 1499 1501 1504 1511 1511 1507 1503 1509 1517 1522 1522 1522 1521 1518 1519 1521 1521 1523 1523 1523 1524 1524 1523 1523 1523 1524 1524 1524 1523 1523 1522 1521 1520 1519 1518 1517 1516 1514 1512 1511
1509 1503 1494 1496 1499 1503 1505 1509 1509 1510 1509 1511 1518 1529 1526 1523 1521 1519 1518 1520 1522 1523 1523 1524 1524 1524 1524 1524 1524 1524 1524 1523 1523 1522 1521 1520 1519 1518 1516 1514 1513 1511 1509 1508
1500 1494 1494 1496 1497 1501 1509 1499 1501 1505 1516 1527 1523 1539 1529 1525 1521 1518 1518 1519 1520 1522 1523 1523 1523 1523 1523 1523 1523 1523 1523 1522 1521 1520 1519 1517 1516 1515 1513 1511 1509 1508 1506 1504
1501 1494 1495 1497 1494 1494 1500 1496 1502 1508 1519 1530 1529 1536 1532 1525 1523 1519 1518 1519 1519 1521 1522 1522 1522 1522 1522 1522 1521 1521 1520 1520 1519 1517 1516 1514 1513 1511 1509 1507 1505 1503 1502 1500
1495 1491 1491 1490 1487 1489 1495 1504 1511 1517 1526 1542 1537 1538 1536 1526 1522 1518 1517 1518 1518 1519 1520 1520 1520 1520 1520 1520 1519 1519 1518 1517 1516 1514 1512 1511 1509 1507 1505 1503 1501 1499 1497 1496
1501 1494 1489 1488 1491 1492 1497 1516 1534 1537 1546 1547 1536 1536 1533 1518 1515 1515 1516 1516 1517 1518 1518 1518 1518 1518 1518 1518 1517 1516 1515 1514 1513 1511 1509 1507 1505 1502 1500 1498 1496 1494 1492 1491
1513 1513 1494 1488 1491 1497 1499 1509 1531 1541 1548 1546 1538 1539 1528 1514 1512 1513 1514 1515 1516 1516 1516 1516 1516 1516 1516 1516 1515 1514 1513 1511 1509 1507 1505 1503 1501 1498 1496 1494 1491 1489 1488 1486
1512 1511 1492 1487 1486 1488 1497 1505 1508 1528 1540 1547 1543 1535 1523 1514 1513 1512 1512 1513 1514 1514 1515 1514 1515 1514 1514 1514 1513 1512 1510 1508 1506 1503 1501 1498 1496 1493 1491 1489 1486 1484 1482 1481
1499 1508 1496 1489 1487 1488 1492 1498 1513 1528 1543 1549 1544 1539 1534 1519 1515 1513 1512 1512 1512 1513 1514 1513 1513 1513 1512 1512 1510 1508 1506 1504 1502 1499 1496 1494 1491 1488 1486 1483 1481 1479 1477 1475
1494 1507 1504 1497 1497 1498 1497 1501 1510 1523 1527 1543 1549 1540 1513 1512 1511 1511 1510 1510 1511 1511 1512 1512 1511 1511 1510 1509 1507 1505 1503 1500 1498 1495 1492 1489 1486 1483 1480 1478 1475 1473 1471 1469
1494 1507 1513 1503 1492 1490 1493 1497 1507 1522 1526 1531 1540 1537 1506 1506 1507 1508 1509 1509 1510 1510 1510 1510 1510 1509 1508 1506 1504 1501 1499 1496 1493 1490 1487 1484 1481 1478 1475 1472 1469 1467 1465 1463
1493 1509 1523 1519 1510 1496 1495 1493 1497 1509 1521 1529 1538 1531 1507 1506 1507 1508 1508 1509 1509 1509 1509 1509 1508 1506 1505 1503 1500 1498 1495 1492 1489 1486 1482 1479 1476 1472 1469 1466 1464 1461 1458 1456
1489 1505 1517 1523 1515 1501 1496 1491 1492 1503 1521 1523 1523 1520 1511 1508 1508 1507 1507 1508 1508 1508 1508 1507 1505 1504 1502 1499 1497 1494 1491 1488 1485 1481 1478 1474 1470 1467 1464 1461 1458 1455 1452 1450
1489 1501 1499 1498 1492 1490 1490 1489 1490 1496 1503 1513 1513 1513 1510 1507 1505 1506 1506 1506 1507 1507 1506 1505 1503 1501 1498 1496 1493 1490 1487 1484 1480 1476 1473 1469 1465 1462 1458 1455 1452 1449 1446 1443
1489 1497 1496 1498 1489 1488 1489 1487 1487 1490 1494 1502 1507 1509 1502 1503 1504 1505 1505 1505 1505 1504 1503 1502 1500 1498 1495 1492 1489 1486 1483 1479 1475 1472 1468 1464 1460 1456 1453 1449 1445 1442 1439 1436
1492 1497 1504 1508 1496 1493 1500 1489 1488 1490 1490 1496 1506 1504 1500 1503 1503 1503 1503 1503 1502 1502 1500 1499 1497 1494 1491 1489 1485 1482 1478 1475 1471 1467 1463 1459 1455 1451 1447 1443 1439 1435 1432 1428
1489 1497 1506 1509 1507 1512 1500 1482 1482 1489 1492 1491 1493 1496 1497 1498 1500 1500 1500 1500 1499 1499 1497 1495 1493 1490 1488 1485 1481 1478 1474 1470 1466 1462 1458 1454 1450 1445 1441 1437 1433 1429 1426 1422
1479 1491 1503 1512 1513 1507 1492 1484 1484 1491 1497 1492 1493 1495 1496 1497 1499 1500 1499 1498 1497 1495 1494 1492 1490 1487 1484 1481 1477 1474 1470 1466 1462 1458 1453 1449 1445 1440 1436 1431 1428 1424 1420 1416
1478 1483 1499 1507 1511 1513 1496 1481 1479 1487 1500 1491 1490 1492 1494 1496 1501 1499 1496 1495 1494 1492 1491 1489 1486 1484 1481 1477 1474 1470 1466 1462 1457 1453 1449 1444 1440 1436 1431 1427 1423 1419 1415 1411
1488 1491 1498 1505 1508 1499 1482 1477 1479 1497 1497 1486 1486 1488 1489 1490 1492 1492 1492 1491 1491 1489 1488 1485 1483 1480 1477 1473 1470 1466 1462 1458 1454 1449 1445 1440 1436 1431 1427 1423 1419 1415 1411 1407
1489 1495 1498 1503 1507 1500 1473 1475 1481 1482 1477 1480 1482 1483 1485 1486 1487 1488 1488 1488 1487 1486 1484 1482 1479 1477 1474 1470 1466 1462 1458 1454 1450 1445 1441 1436 1432 1428 1423 1419 1415 1411 1407 1402
1481 1482 1485 1488 1487 1471 1467 1468 1469 1471 1473 1476 1478 1480 1481 1482 1483 1484 1485 1485 1484 1483 1481 1479 1476 1473 1470 1467 1463 1459 1455 1450 1446 1442 1437 1433 1429 1424 1420 1415 1411 1407 1403 1399
1474 1470 1473 1475 1470 1465 1464 1465 1467 1468 1470 1472 1474 1476 1477 1478 1479 1480 1481 1481 1480 1479 1477 1475 1473 1470 1467 1463 1460 1456 1451 1447 1443 1438 1434 1430 1425 1421 1416 1412 1408 1403 1399 1395
1472 1470 1473 1473 1467 1464 1464 1463 1464 1466 1468 1470 1472 1473 1474 1475 1476 1477 1477 1477 1477 1476 1474 1472 1469 1466 1463 1460 1456 1452 1448 1444 1439 1435 1431 1427 1422 1418 1413 1409 1405 1400 1397 1393
1468 1469 1471 1472 1463 1463 1461 1461 1462 1464 1466 1467 1468 1470 1471 1471 1472 1472 1473 1473 1473 1472 1470 1468 1466 1463 1460 1456 1453 1449 1445 1441 1437 1432 1428 1424 1420 1415 1411 1406 1402 1398 1394 1390